Tracking 19794 objects as of 22-Jul-2019
HD Live streaming from Space Station
objects crossing your sky now

THORAD DELTA 1 DEB

Track THORAD DELTA 1 DEB now!
10-day predictions


NORAD ID: 8175
Int'l Code: 1974-089AR
Perigee: 1,260.6 km
Apogee: 1,632.0 km
Inclination: 102.6 °
Period: 114.6 minutes
Semi major axis: 7817 km
RCS: 0.0392 m2 (small)
Launch date: November 15, 1974
Source: United States (US)
Launch site: AIR FORCE WESTERN TEST RANGE (AFWTR)

Note: This is SATELLITE DEBRIS
aabbcc
Your satellite tracking list
Your tracking list is empty




NASA's NSSDC Master Catalog

Two Line Element Set (TLE):
1  8175U 74089AR  19202.87231350 -.00002258  00000-0 -12058-1 0  9998
2  8175 102.6369 298.5458 0237569 105.8279  12.9820 12.56079155 12034
Source of the keplerian elements: AFSPC